Find Starlink 32604

NORAD ID: 62070 Int'l Des: 2024-217 Owner: SPXS Country: US Constellation: starlink operational
LEOCIRCULAR

現在のビュー

3D地球を読み込み中...

About Starlink 32604

Starlink 32604 (NORAD 62070) is a starlink constellation satellite (v2 mini) launched Nov 24, 2024 by SPXS of US. It operates in LEO, CIRCULAR orbit with a mass of 730.00 kg.

Starlink 32604について

説明を読み込み中...

次回通過

Passes for default location (London). Set your location on the main map for personalized predictions.

高度履歴

Loading altitude history...

軌道要素

1 62070U 24217P 26170.13158503 .00031373 00000-0 93569-3 0 9995
2 62070 53.1591 81.9266 0001296 87.7965 272.3186 15.34402902 88963
Epoch: Jun 19, 2026 • Age: 5 hours

現在のステータス

高度 462.7 km
速度 7.64 km/s
衛星直下点 19.21°N, 149.6°W
打ち上げ日 Nov 24, 2024
運用期間 1.5 years
タイプ internet

技術仕様

分類 Payload
質量 730.00 kg
乾燥質量 700.00 kg
総質量 730.00 kg
長さ 0.30 m
直径 4.10 m
スパン 29.00 m
形状 Box + pan
製造者 SPXS
バスタイプ Starlink V2M
フェーズステータス In Orbit
所有者/国 SPXS/US

Most Searched